Location: Barcelona
(41.3830°N, 2.1830°E)
Time: 08:44:45
(UTC+02:00)

ISS - Pass Details

Date: 24 July 2017
Orbit: 400 x 408 km, 51.6° (Epoch: 21 July)

Event Time Altitude Azimuth Distance (km) Brightness Sun altitude
Rises 05:47:15 0° 297° (WNW) 2,315 -0.2 -9.0°
Reaches altitude 10° 05:49:29 10° 286° (WNW) 1,454 -1.4 -8.7°
Maximum altitude 05:52:21 29° 224° (SW) 769 -3.0 -8.2°
Drops below altitude 10° 05:55:13 10° 162° (SSE) 1,449 -1.2 -7.8°
Sets 05:57:27 0° 151° (SSE) 2,305 -0.1 -7.4°
